Regional Weather Roundup
Issued by NWS

Home | Current Version | Previous Version | Graphics & Text | Print | Product List | Glossary On
Versions: 1 2 3 4 5 6 7 8 9 10 11 12 13 14 15 16 17 18 19 20 21 22 23 24 25 26 27 28 29 30 31 32 33 34 35 36 37 38 39 40 41 42 43 44 45 46 47 48 49 50
000
ASUS43 KLMK 221010
RWRKY
KENTUCKY REGIONAL WEATHER ROUNDUP
NATIONAL WEATHER SERVICE LOUISVILLE KY
600 AM EDT TUE AUG 22 2017

NOTE "FAIR" INDICATES FEW OR NO CLOUDS BELOW 12,000 FEET
WITH NO SIGNIFICANT WEATHER AND/OR OBSTRUCTIONS TO VISIBILITY.

KYZ001>023-026-027-061>063-070>075-221100-
WESTERN AND SOUTH CENTRAL KENTUCKY

CITY           SKY/WX    TMP DP  RH WIND       PRES   REMARKS
PADUCAH        CLOUDY    78  73  84 SW7       29.98F
HENDERSON      NOT AVBL
OWENSBORO      CLEAR     74  71  91 S3        29.99S
HOPKINSVILLE   CLEAR     76  71  87 SW5       30.01F
BOWLING GREEN  CLEAR     76  70  82 S6        30.03S
GLASGOW        CLEAR     72  67  84 S7        30.04S
$$

KYZ024-025-028>034-038-045-046-053-221100-
NORTH CENTRAL KENTUCKY

CITY           SKY/WX    TMP DP  RH WIND       PRES   REMARKS
LOUISVILLE/SDF MOCLDY    79  69  71 SW8       30.00R
LOUISVILLE/LOU CLEAR     75  70  84 S5        30.01R
FORT KNOX      MOCLDY    74  69  84 S6        30.01R
$$

KYZ035>037-039>044-047>052-055>060-089>105-221100-
NORTHEAST KENTUCKY

CITY           SKY/WX    TMP DP  RH WIND       PRES   REMARKS
LEXINGTON      CLEAR     74  67  78 S8        30.05R
COVINGTON      MOCLDY    74  69  85 S9        29.99S
FRANKFORT      CLEAR     73  66  78 S6        30.02S
$$

KYZ054-064>069-076>088-106>120-221100-
SOUTHEAST KENTUCKY

CITY           SKY/WX    TMP DP  RH WIND       PRES   REMARKS
JACKSON        CLEAR     71  67  87 CALM      30.10R
LONDON         CLEAR     68  66  93 CALM      30.10S
SOMERSET       CLEAR     70  70 100 CALM      30.09F
MIDDLESBORO    CLOUDY    66  66 100 CALM      30.14R FOG
MONTICELLO     SUNNY     66  65  96 VRB6      30.10R
$$





USA.gov is the U.S. government's official web portal to all federal, state and local government web resources and services.